Tracking 28794 objects as of 19-Apr-2024
HD Live streaming from Space Station
objects crossing your sky now

COSMOS 2251 DEB

Track COSMOS 2251 DEB now!
10-day predictions


NORAD ID: 34433
Int'l Code: 1993-036SA
Perigee: 758.8 km
Apogee: 997.4 km
Inclination: 74.0 °
Period: 102.4 minutes
Semi major axis: 7249 km
RCS: 0.033 m2 (small)
Launch date: June 16, 1993
Source: Commonwealth of Independent States (former USSR) (CIS)
Launch site: PLESETSK MISSILE AND SPACE COMPLEX (PKMTR)

Note: This is SATELLITE DEBRIS
Your satellite tracking list
Your tracking list is empty




NASA's NSSDC Master Catalog

Two Line Element Set (TLE):
1 34433U 93036SA  24109.48902496  .00005749  00000-0  30771-2 0  9991
2 34433  74.0183 138.3814 0164623  51.0754 310.4927 14.06621841774461
Source of the keplerian elements: AFSPC